Flag for Germany Weather past 2 weeks in Achim, Lower Saxony, Germany

Now
45 °F

Broken clouds.


Feels Like: 40 °F
Forecast: 31 / 45 °F
Wind: 9 mph from Northwest

Location: Bremen Airport

Current Time: Feb 27, 2015 at 12:55:30 PM

Latest Report: Feb 27, 2015 at 12:20 PM


Visibility: N/A

Pressure: 29.89 "Hg

Humidity: 81%

Dew point: 39 °F

Location of AchimLocation

Historic Weather in Achim — Graph

°F

Achim temperature yesterday

Maximum temperature yesterday: 48 °F (at 1:20 PM)
Minimum temperature yesterday: 39 °F (at 12:20 AM)
Average temperature yesterday: 43 °F

Past Weeks' High & Low Weather Summary

 TemperatureHumidityPressure
High50 °F (Feb 14, 2:20 PM)100% (Feb 13, 6:50 AM)30.72 "Hg (Feb 13, 6:50 AM)
Low27 °F (Feb 17, 5:50 AM)57% (Feb 18, 4:20 PM)29.27 "Hg (Feb 21, 6:50 AM)
Average38 °F87%29.95 "Hg
* Reported Feb 12 11:20 AM — Feb 27 11:20 AM, Achim, Weather by CustomWeather, © 2015

Note: Actual official high and low records may vary slightly from our data, if they occured in-between our weather recording intervals... More about our weather records

Advertising

Achim weather history for previous 24 hours

 ConditionsComfort  
Time TempWeatherWind HumidityBarometerVisibility
11:20 AM
Fri, Feb 27
43 °FLight rain. Broken clouds.10 mph93%29.89 "Hg5 mi
10:50 AM43 °FLight rain. Partly sunny.10 mph93%29.86 "Hg4 mi
10:20 AM43 °FLight rain. Broken clouds.10 mph93%29.86 "Hg4 mi
9:50 AM43 °FLight rain. Partly sunny.13 mph93%29.86 "Hg4 mi
9:20 AM41 °FLight rain. Partly sunny.8 mph100%29.83 "Hg5 mi
8:50 AM41 °FLight rain. Partly sunny.13 mph93%29.83 "Hg5 mi
8:20 AM41 °FLight rain. Partly sunny.13 mph93%29.83 "Hg4 mi
7:50 AM41 °FLight rain. Partly sunny.14 mph100%29.80 "Hg4 mi
7:20 AM41 °FLight rain. Partly sunny.12 mph100%29.80 "Hg3 mi
6:50 AM41 °FPartly cloudy.12 mph100%29.77 "Hg3 mi
6:20 AM41 °FPartly cloudy.7 mph100%29.77 "Hg3 mi
5:20 AM41 °FPassing clouds.1 mph100%29.77 "Hg4 mi
4:20 AM41 °FPassing clouds.3 mph100%29.77 "Hg4 mi
3:50 AM41 °FPassing clouds.6 mph100%29.77 "Hg4 mi
3:20 AM41 °FPassing clouds.7 mph100%29.77 "Hg3 mi
2:50 AM41 °FPassing clouds.8 mph100%29.77 "Hg3 mi
2:20 AM41 °FPassing clouds.8 mph100%29.80 "Hg2 mi
1:50 AM41 °FPassing clouds.8 mph100%29.80 "Hg2 mi
1:20 AM41 °FPassing clouds.8 mph100%29.80 "Hg1 mi
12:50 AM41 °FPassing clouds.8 mph100%29.80 "Hg1 mi
12:20 AM41 °FPassing clouds.10 mph100%29.80 "Hg2 mi
11:50 PM
Thu, Feb 26
41 °FPassing clouds.9 mph93%29.80 "Hg3 mi
11:20 PM41 °FLight rain. Passing clouds.8 mph93%29.83 "Hg6 mi
10:50 PM41 °FLight rain. Passing clouds.10 mph93%29.83 "HgN/A
10:20 PM43 °FLight rain. Passing clouds.10 mph81%29.83 "HgN/A
9:50 PM43 °FPassing clouds.10 mph81%29.86 "HgN/A
9:20 PM45 °FPassing clouds.13 mph71%29.86 "HgN/A
8:50 PM45 °FPassing clouds.13 mph71%29.86 "HgN/A
8:20 PM45 °FClear.14 mph71%29.86 "Hg10 mi
7:50 PM45 °FClear.14 mph71%29.89 "Hg10 mi
7:20 PM45 °FClear.13 mph71%29.89 "Hg10 mi
6:50 PM45 °FClear.14 mph71%29.89 "Hg10 mi
6:20 PM45 °FClear.14 mph71%29.89 "Hg10 mi
5:50 PM46 °FSunny.14 mph66%29.89 "Hg10 mi
5:20 PM46 °FSunny.15 mph71%29.92 "Hg10 mi
4:50 PM46 °FSunny.15 mph71%29.92 "Hg10 mi
4:20 PM46 °FPartly sunny.16 mph71%29.92 "HgN/A
3:50 PM48 °FScattered clouds.17 mph62%29.95 "HgN/A
3:20 PM48 °FScattered clouds.16 mph62%29.95 "HgN/A
2:50 PM48 °FScattered clouds.17 mph66%29.98 "HgN/A
2:20 PM48 °FPassing clouds.15 mph66%29.98 "HgN/A
1:50 PM46 °FPassing clouds.18 mph66%29.98 "HgN/A
1:20 PM48 °FScattered clouds.17 mph66%30.01 "HgN/A
12:50 PM46 °FScattered clouds.16 mph71%30.04 "HgN/A
12:20 PM46 °FScattered clouds.15 mph66%30.04 "HgN/A
Weather by CustomWeather, © 2015

See weather overviewHow to use our weather pages